DateTimeUTC,F1_A11,F1_S11,BsB_S11,BsG_S11,BsR_S11,BbsB_S11,BbsG_S11,BbsR_S11,BaB_A11,BaG_A11,BaR_A11,Tu_S11,T_S11,Uu_S11,U_S11,P_S11,T1_A11
2021-06-07T11:00:00Z,00000200,20000000,,,,,,,0000.43,0000.28,0000.26,17.8,24.4,06.5,04.3,0672.2,30.9
2021-06-07T11:01:00Z,00000200,20000000,,,,,,,0000.50,0000.10,0000.02,17.8,24.4,06.5,04.3,0672.2,30.9
2021-06-07T11:02:00Z,00000200,20000000,,,,,,,0000.02,0000.22,0000.50,17.8,24.4,06.5,04.3,0672.2,30.9
2021-06-07T11:03:00Z,00000200,60000000,,,,,,,0000.65,0000.38,0000.23,17.8,24.4,06.5,04.3,0672.2,30.9
2021-06-07T11:04:00Z,00000200,40000000,0000.62,0000.89,0000.43,0000.32,0000.10,0000.13,0000.24,0000.64,0000.31,18.0,24.2,06.8,04.6,0673.1,30.9
2021-06-07T11:05:00Z,00000200,00000000,0000.73,0000.70,0000.42,0000.02,0000.42,-000.04,0000.22,-000.12,-000.11,18.0,24.2,06.7,04.6,0673.2,30.9
2021-06-07T11:06:00Z,00000200,00000000,0000.91,0000.42,0000.35,-000.44,-000.12,0000.25,-000.07,-000.11,0000.03,18.0,24.2,06.5,04.5,0673.2,30.9
2021-06-07T11:07:00Z,00000200,00000000,0001.03,0000.44,0000.32,0000.44,0000.32,0000.26,0000.04,0000.05,-000.04,18.0,24.2,06.2,04.3,0673.2,30.9
2021-06-07T11:08:00Z,00000200,00000000,0000.44,0000.63,0000.27,0000.15,0000.27,-000.14,0000.86,0000.80,0000.79,18.1,24.2,06.3,04.3,0673.2,31.0
2021-06-07T11:09:00Z,00000200,00000000,0000.32,0000.72,0000.38,0000.11,0000.06,0000.28,-000.41,-000.15,-000.40,18.1,24.2,06.5,04.5,0673.2,31.0
2021-06-07T11:10:00Z,00000200,00000000,0000.96,0000.78,0000.36,0000.42,0000.24,0000.21,0000.04,0000.11,-000.06,18.1,24.2,06.3,04.3,0673.2,31.0
2021-06-07T11:11:00Z,00000200,00000000,0001.03,0000.74,0000.23,0000.10,0000.25,0000.16,0000.49,0000.53,0000.45,18.1,24.2,06.2,04.3,0673.2,30.9
2021-06-07T11:12:00Z,00000200,00000000,0000.56,0000.70,0000.35,0000.27,-000.02,0000.38,-000.02,-000.13,0000.17,18.2,24.2,06.1,04.2,0673.2,31.0
2021-06-07T11:13:00Z,00000200,00000000,0001.17,0000.72,0000.31,-000.13,0000.12,0000.04,0000.32,0000.11,0000.02,18.2,24.2,06.0,04.1,0673.2,31.0
2021-06-07T11:14:00Z,00000200,00000000,0000.78,0000.57,0000.20,0000.19,0000.32,0000.34,0000.18,0000.69,0000.39,18.2,24.2,06.1,04.2,0673.2,31.0
2021-06-07T11:15:00Z,00000200,00000000,0000.86,0000.41,0000.41,0000.33,0000.29,0000.21,0000.51,0000.09,0000.04,18.2,24.3,06.1,04.2,0673.2,31.0
2021-06-07T11:16:00Z,00000200,00000000,0000.66,0000.83,0000.16,-000.43,-000.08,0000.13,0000.24,0000.48,0000.40,18.2,24.3,06.1,04.2,0673.2,31.0
2021-06-07T11:17:00Z,00000200,00000000,0000.78,0000.60,0000.32,-000.01,0000.10,0000.06,0000.37,-000.25,-000.03,18.3,24.3,06.2,04.3,0673.2,31.0
2021-06-07T11:18:00Z,00000200,00000000,0001.37,0000.67,0000.31,0000.07,0000.23,0000.34,-000.19,0000.37,0000.21,18.3,24.3,06.1,04.2,0673.2,30.9
2021-06-07T11:19:00Z,00000200,00000000,0000.92,0000.63,0000.39,0000.46,-000.03,0000.32,0000.65,0000.17,0000.17,18.3,24.3,06.1,04.2,0673.2,31.0
2021-06-07T11:20:00Z,00000200,00000000,0001.18,0000.48,0000.23,0000.11,0000.04,0000.23,-000.05,0000.31,0000.03,18.3,24.3,06.2,04.3,0673.2,31.0
2021-06-07T11:21:00Z,00000200,00000000,0000.27,0000.31,0000.21,0000.28,0000.38,0000.25,0000.23,0000.12,0000.49,18.3,24.3,06.2,04.3,0673.2,31.0
2021-06-07T11:22:00Z,00000200,00000000,0000.69,0000.78,0000.47,0000.46,0000.10,0000.20,0000.14,-000.02,0000.17,18.4,24.3,06.1,04.2,0673.2,31.0
2021-06-07T11:23:00Z,00000200,00000000,0000.80,0000.87,0000.25,0000.22,0000.46,0000.19,0000.04,0000.41,-000.16,18.4,24.3,06.1,04.2,0673.2,31.0
2021-06-07T11:24:00Z,00000200,00000000,0001.27,0000.62,0000.23,0000.04,0000.11,0000.32,0001.03,0000.30,0000.47,18.4,24.3,06.1,04.2,0673.2,31.0
2021-06-07T11:25:00Z,00000200,00000000,0001.33,0000.61,0000.41,-000.27,0000.26,0000.04,-000.13,0000.24,0000.14,18.4,24.4,06.2,04.3,0673.2,31.0
2021-06-07T11:26:00Z,00000200,00000000,0000.94,0000.54,0000.25,0000.29,0000.09,-000.03,0000.56,0000.62,0000.24,18.5,24.4,06.2,04.3,0673.2,31.0
2021-06-07T11:27:00Z,00000200,00000000,0000.89,0000.27,0000.68,0000.08,-000.09,0000.26,-000.01,-000.18,0000.10,18.5,24.4,06.3,04.4,0673.2,31.0
2021-06-07T11:28:00Z,00000200,00000000,0001.00,0000.72,0000.19,-000.14,0000.08,0000.06,-000.04,0000.08,0000.42,18.5,24.4,06.1,04.2,0673.2,31.0
2021-06-07T11:29:00Z,00000200,00000000,0000.53,0000.60,0000.19,0000.12,0000.37,0000.16,0000.68,0000.65,0000.30,18.5,24.4,06.1,04.2,0673.2,31.0
2021-06-07T11:30:00Z,00000200,00000000,0000.88,0000.42,0000.15,0000.21,0000.14,-000.07,-000.33,0000.01,-000.47,18.5,24.4,06.1,04.3,0673.2,31.0
2021-06-07T11:31:00Z,00000200,00000000,0000.88,0000.89,0000.56,0000.14,0000.28,0000.17,0000.43,-000.03,0000.58,18.5,24.4,05.9,04.1,0673.2,31.0
2021-06-07T11:32:00Z,00000200,00000000,0001.42,0000.95,0000.58,0000.07,0000.16,0000.13,0000.55,0000.30,-000.06,18.6,24.5,06.0,04.2,0673.2,31.0
2021-06-07T11:33:00Z,00000200,00000000,0001.00,0000.62,0000.37,0000.02,-000.05,0000.20,0000.32,0000.32,0000.57,18.6,24.5,06.1,04.2,0673.2,31.0
2021-06-07T11:34:00Z,00000200,00000000,0000.55,0000.85,0000.27,0000.05,0000.19,0000.22,0000.09,0000.66,0000.10,18.6,24.5,06.1,04.3,0673.2,31.0
2021-06-07T11:35:00Z,00000200,00000000,0000.72,0000.65,0000.53,0000.14,0000.21,-000.03,0000.40,0000.24,0000.46,18.6,24.5,06.1,04.2,0673.3,31.0
2021-06-07T11:36:00Z,00000200,00000000,0000.58,0000.62,0000.29,-000.59,0000.18,-000.03,0000.52,-000.06,-000.13,18.7,24.5,06.1,04.3,0673.3,31.0
2021-06-07T11:37:00Z,00000200,00000000,0001.26,0000.70,0000.04,-000.08,0000.08,0000.10,-000.07,0000.21,0000.11,18.7,24.5,06.1,04.3,0673.3,31.0
2021-06-07T11:38:00Z,00000200,00000000,0001.24,0000.78,0000.08,0000.43,0000.18,0000.20,0000.07,0000.19,0000.19,18.7,24.6,06.2,04.3,0673.2,31.1
2021-06-07T11:39:00Z,00000200,00000000,0001.31,0000.67,0000.27,0000.35,0000.12,0000.24,0000.55,0000.14,0000.13,18.7,24.6,06.2,04.3,0673.3,31.1
2021-06-07T11:40:00Z,00000200,00000000,0000.14,0000.92,0000.29,0000.25,0000.11,0000.09,0000.39,0000.34,0000.33,18.7,24.6,06.1,04.3,0673.3,31.1
2021-06-07T11:41:00Z,00000200,00000000,0000.46,0000.88,0000.22,-000.07,0000.25,0000.30,0000.34,0000.34,0000.23,18.8,24.6,06.0,04.2,0673.3,31.0
2021-06-07T11:42:00Z,00000200,00000000,0000.81,0000.61,0000.24,0000.17,-000.03,0000.20,0000.37,0000.49,0000.34,18.8,24.7,06.1,04.2,0673.3,31.1
2021-06-07T11:43:00Z,00000200,00000000,0000.57,0000.48,0000.34,0000.52,0000.17,-000.06,0000.31,0000.32,0000.53,18.8,24.7,06.2,04.4,0673.3,31.1
2021-06-07T11:44:00Z,00000200,00000000,0000.84,0000.87,0000.44,0000.05,0000.02,0000.02,0000.06,0000.12,-000.07,18.8,24.7,06.3,04.4,0673.3,31.1
2021-06-07T11:45:00Z,00000200,00000000,0001.21,0000.49,0000.09,0000.17,0000.13,0000.07,0000.28,0000.32,-000.24,18.9,24.7,06.1,04.3,0673.3,31.1
2021-06-07T11:46:00Z,00000200,00000000,0001.11,0000.58,0000.47,-000.02,0000.21,0000.22,0000.32,0000.25,0000.50,18.9,24.7,06.1,04.3,0673.3,31.1
2021-06-07T11:47:00Z,00000200,00000000,0001.15,0000.39,0000.45,0000.14,0000.20,-000.02,0000.12,-000.09,-000.23,18.9,24.7,06.0,04.2,0673.3,31.1
2021-06-07T11:48:00Z,00000200,00000000,0001.12,0000.51,0000.26,0000.07,0000.13,0000.49,0000.09,0000.19,0000.10,18.9,24.7,06.0,04.2,0673.3,31.1
2021-06-07T11:49:00Z,00000200,00000000,0000.20,0000.42,0000.07,-000.11,0000.12,0000.20,-000.04,0000.27,0000.46,18.9,24.8,06.0,04.2,0673.3,31.1
2021-06-07T11:50:00Z,00000200,00000000,0000.96,0000.67,0000.28,0000.30,0000.27,0000.45,0000.35,0000.29,0000.27,19.0,24.8,05.9,04.1,0673.3,31.1
2021-06-07T11:51:00Z,00000200,00000000,0000.50,0000.30,0000.24,0000.44,-000.02,0000.24,-000.09,-000.13,-000.19,19.0,24.8,05.7,04.0,0673.3,31.1
2021-06-07T11:52:00Z,00000200,00000000,0000.52,0000.28,0000.18,0000.02,-000.13,-000.15,0000.46,0000.40,0000.02,19.0,24.8,05.8,04.1,0673.3,31.1
2021-06-07T11:53:00Z,00000200,00000000,0000.91,0000.65,0000.31,0000.22,-000.03,-000.22,0000.51,0000.13,0000.40,19.0,24.8,05.8,04.1,0673.3,31.1
2021-06-07T11:54:00Z,00000200,00000000,0000.76,0000.56,0000.50,-000.09,0000.40,0000.26,-000.17,-000.18,0000.11,19.0,24.8,05.9,04.1,0673.3,31.1
2021-06-07T11:55:00Z,00000200,00000000,0000.76,0000.73,0000.03,-000.48,-000.06,0000.21,0000.38,0000.75,0000.11,19.0,24.8,05.6,03.9,0673.3,31.1
2021-06-07T11:56:00Z,00000200,00000000,0001.09,0000.53,0000.14,-000.29,-000.01,0000.18,0000.37,-000.26,0000.36,19.1,24.9,05.7,04.0,0673.3,31.1
2021-06-07T11:57:00Z,00000200,40000000,,,,,,,0000.32,0000.52,0000.22,19.1,24.9,05.3,03.7,0673.3,31.1
2021-06-07T11:58:00Z,00000200,60000000,,,,,,,-000.23,0000.05,0000.03,18.9,25.0,05.9,04.1,0672.3,31.1
2021-06-07T11:59:00Z,00000200,20000000,,,,,,,-000.34,-000.39,-000.01,18.9,25.0,05.7,03.9,0672.3,31.1
